| time (UTC) | temp C | wind direction | speed KPH | gust KPH | rain 1hr cm | rain 24hr cm | rain mn cm | humidity % | barometer mb |
| 20260507171620 | 17 | 113 | 4.8 | 6.4 | 0.00 | 0.00 | 1.19 | 38 | 1002.0 |
| 20260507171120 | 16 | 135 | 8.0 | 9.7 | 0.00 | 0.00 | 1.19 | 39 | 1002.0 |
| 20260507170621 | 16 | 68 | 6.4 | 9.7 | 0.00 | 0.00 | 1.19 | 39 | 1002.0 |
| 20260507170120 | 16 | 68 | 6.4 | 9.7 | 0.00 | 0.00 | 1.19 | 39 | 1002.0 |
| 20260507165620 | 16 | 113 | 4.8 | 4.8 | 0.00 | 0.00 | 1.19 | 44 | 1002.0 |
| 20260507165120 | 17 | 158 | 3.2 | 4.8 | 0.00 | 0.00 | 1.19 | 46 | 1002.0 |
| 20260507164620 | 17 | 203 | 4.8 | 6.4 | 0.00 | 0.00 | 1.19 | 43 | 1002.0 |
| 20260507164120 | 17 | 248 | 1.6 | 4.8 | 0.00 | 0.00 | 1.19 | 42 | 1002.0 |
| 20260507163621 | 17 | 68 | 4.8 | 6.4 | 0.00 | 0.00 | 1.19 | 43 | 1002.0 |
| 20260507163121 | 16 | 248 | 4.8 | 6.4 | 0.00 | 0.00 | 1.19 | 54 | 1002.0 |
| 20260507162620 | 16 | 203 | 4.8 | 9.7 | 0.00 | 0.00 | 1.19 | 48 | 1003.0 |
| 20260507162120 | 16 | 158 | 3.2 | 4.8 | 0.00 | 0.00 | 1.19 | 50 | 1003.0 |
| 20260507161621 | 16 | 158 | 6.4 | 8.0 | 0.00 | 0.00 | 1.19 | 49 | 1003.0 |
| 20260507161120 | 15 | 23 | 1.6 | 4.8 | 0.00 | 0.00 | 1.19 | 55 | 1002.0 |
| 20260507160620 | 15 | 338 | 4.8 | 6.4 | 0.00 | 0.00 | 1.19 | 47 | 1003.0 |
| 20260507160122 | 16 | 180 | 4.8 | 4.8 | 0.00 | 0.00 | 1.19 | 51 | 1003.0 |
| 20260507155620 | 16 | 180 | 1.6 | 4.8 | 0.00 | 0.00 | 1.19 | 55 | 1003.0 |
| 20260507155120 | 15 | 113 | 4.8 | 6.4 | 0.00 | 0.00 | 1.19 | 54 | 1003.0 |
| 20260507154621 | 15 | 90 | 4.8 | 8.0 | 0.00 | 0.00 | 1.19 | 59 | 1003.0 |
| 20260507154120 | 15 | 248 | 6.4 | 11.3 | 0.00 | 0.00 | 1.19 | 56 | 1003.0 |
| 20260507153621 | 15 | 113 | 4.8 | 4.8 | 0.00 | 0.00 | 1.19 | 58 | 1003.0 |
| 20260507153121 | 16 | 90 | 4.8 | 4.8 | 0.00 | 0.00 | 1.19 | 49 | 1003.0 |
| 20260507152623 | 16 | 135 | 4.8 | 4.8 | 0.00 | 0.00 | 1.19 | 58 | 1003.0 |
| 20260507152121 | 15 | 270 | 1.6 | 3.2 | 0.00 | 0.00 | 1.19 | 63 | 1003.0 |
| 20260507151620 | 15 | 135 | 0.0 | 0.0 | 0.00 | 0.00 | 1.19 | 61 | 1003.0 |
| 20260507151120 | 15 | 293 | 1.6 | 4.8 | 0.00 | 0.00 | 1.19 | 58 | 1003.0 |
| 20260507150620 | 15 | 270 | 0.0 | 1.6 | 0.00 | 0.00 | 1.19 | 57 | 1003.0 |
| 20260507150121 | 15 | 113 | 4.8 | 4.8 | 0.00 | 0.00 | 1.19 | 58 | 1003.0 |
| 20260507145622 | 15 | 68 | 4.8 | 4.8 | 0.00 | 0.00 | 1.19 | 64 | 1003.0 |
| 20260507145120 | 13 | 180 | 3.2 | 4.8 | 0.00 | 0.00 | 1.19 | 63 | 1003.0 |
| 20260507144620 | 14 | 315 | 1.6 | 3.2 | 0.00 | 0.00 | 1.19 | 61 | 1003.0 |
| 20260507144121 | 14 | 293 | 4.8 | 6.4 | 0.00 | 0.00 | 1.19 | 57 | 1003.0 |
| 20260507143623 | 13 | 158 | 4.8 | 6.4 | 0.00 | 0.00 | 1.19 | 60 | 1003.0 |
| 20260507143121 | 14 | 248 | 0.0 | 1.6 | 0.00 | 0.00 | 1.19 | 59 | 1003.0 |
| 20260507142141 | 14 | 68 | 6.4 | 8.0 | 0.00 | 0.00 | 1.19 | 58 | 1003.0 |
| 20260507141620 | 13 | 270 | 0.0 | 3.2 | 0.00 | 0.00 | 1.19 | 61 | 1004.0 |
| 20260507141120 | 13 | 248 | 4.8 | 4.8 | 0.00 | 0.00 | 1.19 | 69 | 1003.0 |
| 20260507140620 | 13 | 158 | 4.8 | 6.4 | 0.00 | 0.00 | 1.19 | 68 | 1004.0 |
| 20260507140120 | 13 | 293 | 4.8 | 6.4 | 0.00 | 0.00 | 1.19 | 64 | 1004.0 |
| 20260507135620 | 13 | 113 | 4.8 | 6.4 | 0.00 | 0.00 | 1.19 | 70 | 1004.0 |
| 20260507135121 | 13 | 248 | 3.2 | 4.8 | 0.00 | 0.00 | 1.19 | 71 | 1004.0 |
| 20260507134620 | 12 | 270 | 6.4 | 8.0 | 0.00 | 0.00 | 1.19 | 72 | 1003.0 |
| 20260507134121 | 12 | 113 | 0.0 | 1.6 | 0.00 | 0.00 | 1.19 | 74 | 1004.0 |
| 20260507133620 | 12 | 90 | 3.2 | 4.8 | 0.00 | 0.00 | 1.19 | 77 | 1004.0 |
| 20260507133121 | 12 | 225 | 1.6 | 3.2 | 0.00 | 0.00 | 1.19 | 77 | 1004.0 |
| 20260507132620 | 12 | 135 | 4.8 | 6.4 | 0.00 | 0.00 | 1.19 | 81 | 1004.0 |
| 20260507132123 | 11 | 158 | 4.8 | 4.8 | 0.00 | 0.00 | 1.19 | 82 | 1004.0 |
| 20260507131620 | 11 | 180 | 3.2 | 8.0 | 0.00 | 0.00 | 1.19 | 83 | 1004.0 |
| 20260507131120 | 11 | 180 | 4.8 | 6.4 | 0.00 | 0.00 | 1.19 | 86 | 1004.0 |
| 20260507130620 | 11 | 180 | 1.6 | 3.2 | 0.00 | 0.00 | 1.19 | 88 | 1004.0 |
| 20260507130120 | 11 | 90 | 4.8 | 6.4 | 0.00 | 0.00 | 1.19 | 88 | 1004.0 |
| 20260507125622 | 10 | 90 | 0.0 | 1.6 | 0.00 | 0.00 | 1.19 | 91 | 1004.0 |
| 20260507125120 | 10 | 113 | 3.2 | 4.8 | 0.00 | 0.00 | 1.19 | 92 | 1004.0 |
| 20260507124620 | 10 | 180 | 0.0 | 3.2 | 0.00 | 0.00 | 1.19 | 93 | 1004.0 |
| 20260507124122 | 10 | 180 | 3.2 | 4.8 | 0.00 | 0.00 | 1.19 | 93 | 1004.0 |
| 20260507123620 | 9 | 203 | 1.6 | 3.2 | 0.00 | 0.00 | 1.19 | 93 | 1004.0 |
| 20260507123120 | 9 | 158 | 1.6 | 3.2 | 0.00 | 0.00 | 1.19 | 94 | 1004.0 |
| 20260507122620 | 9 | 158 | 3.2 | 4.8 | 0.00 | 0.00 | 1.19 | 94 | 1004.0 |
| 20260507122120 | 9 | 135 | 1.6 | 1.6 | 0.00 | 0.00 | 1.19 | 94 | 1004.0 |
| 20260507121621 | 9 | 90 | 0.0 | 0.0 | 0.00 | 0.00 | 1.19 | 95 | 1004.0 |
| 20260507121120 | 9 | 90 | 0.0 | 0.0 | 0.00 | 0.00 | 1.19 | 95 | 1004.0 |
| 20260507120620 | 9 | 180 | 0.0 | 0.0 | 0.00 | 0.00 | 1.19 | 95 | 1004.0 |
| 20260507120120 | 9 | 270 | 0.0 | 0.0 | 0.00 | 0.00 | 1.19 | 95 | 1003.0 |
| 20260507115620 | 9 | 270 | 0.0 | 0.0 | 0.10 | 0.00 | 1.19 | 95 | 1004.0 |
| 20260507115120 | 8 | 23 | 0.0 | 0.0 | 0.10 | 0.00 | 1.19 | 95 | 1004.0 |
| 20260507114620 | 8 | 270 | 0.0 | 0.0 | 0.10 | 0.00 | 1.19 | 95 | 1003.0 |
| 20260507114120 | 8 | 225 | 0.0 | 0.0 | 0.10 | 0.00 | 1.19 | 95 | 1004.0 |
| 20260507113620 | 8 | 225 | 0.0 | 0.0 | 0.10 | 0.00 | 1.19 | 95 | 1004.0 |
| 20260507113120 | 8 | 225 | 0.0 | 0.0 | 0.10 | 0.00 | 1.19 | 95 | 1004.0 |
| 20260507112621 | 8 | 225 | 0.0 | 0.0 | 0.10 | 0.00 | 1.19 | 95 | 1004.0 |
| 20260507112120 | 8 | 225 | 0.0 | 0.0 | 0.10 | 0.00 | 1.19 | 95 | 1003.0 |
| 20260507111620 | 8 | 293 | 0.0 | 0.0 | 0.05 | 0.00 | 1.17 | 95 | 1003.0 |
| 20260507111120 | 8 | 293 | 0.0 | 0.0 | 0.05 | 0.00 | 1.17 | 95 | 1004.0 |
| 20260507110621 | 8 | 225 | 0.0 | 0.0 | 0.03 | 0.00 | 1.14 | 94 | 1003.0 |
| 20260507110120 | 8 | 135 | 0.0 | 0.0 | 0.00 | 0.00 | 1.12 | 94 | 1003.0 |
| 20260507105620 | 8 | 293 | 0.0 | 0.0 | 0.18 | 0.00 | 1.12 | 94 | 1003.0 |
| 20260507105121 | 8 | 135 | 1.6 | 3.2 | 0.18 | 0.00 | 1.12 | 94 | 1003.0 |
| 20260507104621 | 8 | 248 | 0.0 | 1.6 | 0.15 | 0.00 | 1.09 | 94 | 1003.0 |
| 20260507104120 | 8 | 225 | 0.0 | 1.6 | 0.15 | 0.00 | 1.09 | 94 | 1003.0 |
| 20260507103620 | 8 | 248 | 0.0 | 0.0 | 0.13 | 0.00 | 1.04 | 94 | 1003.0 |
| 20260507103121 | 8 | 203 | 0.0 | 0.0 | 0.10 | 0.00 | 1.02 | 94 | 1004.0 |
| 20260507102620 | 8 | 180 | 0.0 | 0.0 | 0.05 | 0.00 | 0.99 | 94 | 1003.0 |
| 20260507102122 | 8 | 180 | 0.0 | 0.0 | 0.03 | 0.00 | 0.97 | 94 | 1003.0 |
| 20260507101620 | 8 | 315 | 0.0 | 1.6 | 0.03 | 0.00 | 0.97 | 93 | 1004.0 |
| 20260507101120 | 8 | 293 | 0.0 | 0.0 | 0.03 | 0.00 | 0.97 | 93 | 1004.0 |
| 20260507100620 | 8 | 270 | 0.0 | 0.0 | 0.03 | 0.00 | 0.97 | 93 | 1003.0 |
| 20260507100120 | 8 | 270 | 0.0 | 0.0 | 0.00 | 0.00 | 0.94 | 93 | 1003.0 |
| 20260507095620 | 8 | 180 | 0.0 | 0.0 | 0.10 | 0.00 | 0.94 | 93 | 1003.0 |
| 20260507095122 | 8 | 180 | 0.0 | 0.0 | 0.05 | 0.00 | 0.89 | 93 | 1003.0 |
| 20260507094620 | 8 | 23 | 0.0 | 0.0 | 0.05 | 0.00 | 0.89 | 93 | 1003.0 |
| 20260507094120 | 8 | 248 | 1.6 | 4.8 | 0.05 | 0.00 | 0.89 | 92 | 1003.0 |
| 20260507093620 | 8 | 225 | 0.0 | 0.0 | 0.05 | 0.00 | 0.89 | 92 | 1003.0 |
| 20260507093122 | 8 | 135 | 3.2 | 4.8 | 0.03 | 0.00 | 0.86 | 92 | 1003.0 |
| 20260507092620 | 8 | 225 | 0.0 | 1.6 | 0.03 | 0.00 | 0.86 | 92 | 1003.0 |
| 20260507092120 | 8 | 158 | 1.6 | 4.8 | 0.03 | 0.00 | 0.86 | 92 | 1003.0 |
| 20260507091620 | 8 | 248 | 4.8 | 4.8 | 0.03 | 0.00 | 0.86 | 92 | 1003.0 |
| 20260507091120 | 8 | 270 | 1.6 | 3.2 | 0.03 | 0.00 | 0.86 | 93 | 1003.0 |
| 20260507090621 | 8 | 158 | 1.6 | 4.8 | 0.03 | 0.00 | 0.86 | 93 | 1003.0 |
| 20260507090123 | 9 | 135 | 1.6 | 3.2 | 0.00 | 0.00 | 0.84 | 93 | 1002.0 |
| 20260507085620 | 9 | 270 | 0.0 | 1.6 | 0.23 | 0.00 | 0.84 | 93 | 1002.0 |
| 20260507085120 | 9 | 180 | 0.0 | 0.0 | 0.23 | 0.00 | 0.84 | 93 | 1003.0 |
| 20260507084620 | 9 | 135 | 0.0 | 0.0 | 0.23 | 0.00 | 0.84 | 92 | 1003.0 |
| 20260507084120 | 9 | 225 | 4.8 | 4.8 | 0.20 | 0.00 | 0.81 | 92 | 1003.0 |
| 20260507083620 | 10 | 113 | 1.6 | 3.2 | 0.20 | 0.00 | 0.81 | 93 | 1002.0 |
| 20260507083121 | 10 | 248 | 1.6 | 4.8 | 0.18 | 0.00 | 0.79 | 93 | 1003.0 |
| 20260507082620 | 10 | 158 | 0.0 | 3.2 | 0.18 | 0.00 | 0.79 | 94 | 1003.0 |
| 20260507082120 | 10 | 203 | 0.0 | 1.6 | 0.15 | 0.00 | 0.76 | 94 | 1002.0 |
| 20260507081620 | 10 | 158 | 1.6 | 3.2 | 0.13 | 0.00 | 0.71 | 94 | 1002.0 |
| 20260507081119 | 10 | 338 | 0.0 | 3.2 | 0.05 | 0.00 | 0.66 | 93 | 1003.0 |
| 20260507080620 | 10 | 225 | 0.0 | 0.0 | 0.03 | 0.00 | 0.64 | 93 | 1003.0 |
| 20260507080121 | 10 | 180 | 3.2 | 4.8 | 0.00 | 0.00 | 0.61 | 93 | 1003.0 |
| 20260507075620 | 10 | 158 | 1.6 | 3.2 | 0.56 | 0.00 | 0.56 | 93 | 1003.0 |
| 20260507075121 | 11 | 113 | 1.6 | 3.2 | 0.53 | 0.00 | 0.53 | 92 | 1003.0 |
| 20260507074620 | 11 | 45 | 0.0 | 1.6 | 0.46 | 0.00 | 0.46 | 91 | 1003.0 |
| 20260507074120 | 11 | 180 | 6.4 | 8.0 | 0.30 | 0.00 | 0.30 | 89 | 1003.0 |
| 20260507073620 | 12 | 113 | 3.2 | 4.8 | 0.18 | 0.00 | 0.18 | 88 | 1003.0 |
| 20260507073120 | 12 | 158 | 1.6 | 3.2 | 0.00 | 0.00 | 0.00 | 87 | 1002.0 |
| 20260507072620 | 12 | 225 | 1.6 | 3.2 | 0.00 | 0.00 | 0.00 | 87 | 1002.0 |
| 20260507072120 | 12 | 158 | 0.0 | 0.0 | 0.00 | 0.00 | 0.00 | 88 | 1002.0 |
| 20260507071621 | 12 | 90 | 0.0 | 0.0 | 0.00 | 0.00 | 0.00 | 88 | 1002.0 |
| 20260507071120 | 12 | 338 | 0.0 | 1.6 | 0.00 | 0.00 | 0.00 | 88 | 1002.0 |
| 20260507070620 | 12 | 158 | 4.8 | 4.8 | 0.00 | 0.00 | 0.00 | 87 | 1002.0 |
| 20260507070120 | 12 | 315 | 1.6 | 3.2 | 0.00 | 0.00 | 0.00 | 88 | 1001.0 |
| 20260507065620 | 12 | 90 | 1.6 | 4.8 | 0.00 | 0.00 | 0.00 | 89 | 1002.0 |
| 20260507065120 | 13 | 113 | 0.0 | 0.0 | 0.00 | 0.00 | 0.00 | 90 | 1002.0 |
| 20260507064620 | 13 | 135 | 0.0 | 0.0 | 0.00 | 0.00 | 0.00 | 90 | 1002.0 |
| 20260507064120 | 13 | 68 | 0.0 | 0.0 | 0.00 | 0.00 | 0.00 | 90 | 1001.0 |
| 20260507063620 | 13 | 203 | 0.0 | 0.0 | 0.00 | 0.00 | 0.00 | 91 | 1002.0 |
| 20260507063120 | 13 | 113 | 1.6 | 1.6 | 0.00 | 0.00 | 0.00 | 92 | 1002.0 |
| 20260507062621 | 13 | 113 | 1.6 | 3.2 | 0.00 | 0.00 | 0.00 | 93 | 1002.0 |
| 20260507062120 | 13 | 158 | 0.0 | 0.0 | 0.00 | 0.00 | 0.00 | 93 | 1002.0 |
| 20260507061620 | 13 | 203 | 0.0 | 0.0 | 0.00 | 0.00 | 0.00 | 93 | 1002.0 |
| 20260507061121 | 13 | 135 | 0.0 | 0.0 | 0.00 | 0.00 | 0.00 | 94 | 1002.0 |
| 20260507060620 | 13 | 90 | 3.2 | 4.8 | 0.00 | 0.00 | 0.00 | 94 | 1002.0 |
| 20260507060120 | 13 | 158 | 0.0 | 0.0 | 0.00 | 0.00 | 0.00 | 95 | 1002.0 |
| 20260507055620 | 13 | 180 | 0.0 | 0.0 | 0.00 | 0.00 | 0.00 | 95 | 1002.0 |
| 20260507055120 | 13 | 180 | 0.0 | 0.0 | 0.00 | 0.00 | 0.00 | 95 | 1002.0 |
| 20260507054620 | 13 | 90 | 0.0 | 0.0 | 0.00 | 0.00 | 0.00 | 96 | 1002.0 |
| 20260507054121 | 13 | 135 | 0.0 | 0.0 | 0.00 | 0.00 | 0.00 | 96 | 1002.0 |
| 20260507053620 | 13 | 135 | 0.0 | 0.0 | 0.00 | 0.00 | 0.00 | 96 | 1002.0 |
| 20260507053120 | 13 | 135 | 0.0 | 0.0 | 0.00 | 0.00 | 0.00 | 96 | 1002.0 |
| 20260507052620 | 13 | 113 | 0.0 | 0.0 | 0.00 | 0.00 | 0.00 | 96 | 1002.0 |
| 20260507052120 | 13 | 135 | 0.0 | 1.6 | 0.00 | 0.00 | 0.00 | 96 | 1002.0 |
| 20260507051620 | 13 | 315 | 0.0 | 0.0 | 0.00 | 0.00 | 0.00 | 96 | 1002.0 |
| 20260507051120 | 13 | 225 | 0.0 | 0.0 | 0.00 | 0.00 | 0.00 | 96 | 1002.0 |
| 20260507050620 | 13 | 338 | 0.0 | 0.0 | 0.00 | 0.00 | 0.00 | 96 | 1002.0 |
| 20260507050120 | 13 | 293 | 0.0 | 0.0 | 0.00 | 0.00 | 0.00 | 96 | 1002.0 |
| 20260507045620 | 13 | 293 | 0.0 | 0.0 | 0.00 | 0.00 | 0.00 | 96 | 1002.0 |
| 20260507045120 | 13 | 293 | 0.0 | 0.0 | 0.00 | 0.00 | 0.00 | 96 | 1002.0 |
| 20260507044620 | 13 | 293 | 0.0 | 0.0 | 0.00 | 0.00 | 0.00 | 96 | 1002.0 |
| 20260507044120 | 13 | 293 | 0.0 | 0.0 | 0.00 | 0.00 | 0.00 | 96 | 1002.0 |
| 20260507043620 | 13 | 270 | 0.0 | 0.0 | 0.00 | 0.00 | 0.00 | 96 | 1002.0 |
| 20260507043119 | 13 | 270 | 0.0 | 0.0 | 0.00 | 0.00 | 0.00 | 96 | 1002.0 |
| 20260507042620 | 13 | 0 | 0.0 | 0.0 | 0.00 | 0.00 | 0.00 | 96 | 1002.0 |
| 20260507042120 | 13 | 225 | 0.0 | 0.0 | 0.00 | 0.00 | 0.00 | 96 | 1002.0 |
| 20260507041620 | 13 | 225 | 0.0 | 0.0 | 0.00 | 0.00 | 0.00 | 96 | 1002.0 |
| 20260507041120 | 13 | 135 | 3.2 | 3.2 | 0.00 | 0.00 | 0.00 | 96 | 1002.0 |
| 20260507040620 | 13 | 225 | 0.0 | 1.6 | 0.00 | 0.00 | 0.00 | 96 | 1002.0 |
| 20260507040120 | 13 | 248 | 0.0 | 0.0 | 0.00 | 0.00 | 0.00 | 96 | 1002.0 |
| 20260507035620 | 13 | 248 | 0.0 | 0.0 | 0.00 | 0.00 | 0.18 | 96 | 1002.0 |
| 20260507035120 | 13 | 135 | 0.0 | 3.2 | 0.00 | 0.00 | 0.18 | 96 | 1002.0 |
| 20260507034622 | 13 | 203 | 0.0 | 0.0 | 0.00 | 0.00 | 0.18 | 96 | 1002.0 |
| 20260507034120 | 13 | 338 | 0.0 | 0.0 | 0.00 | 0.00 | 0.18 | 96 | 1002.0 |
| 20260507033620 | 13 | 203 | 3.2 | 4.8 | 0.00 | 0.00 | 0.18 | 96 | 1002.0 |
| 20260507033120 | 13 | 180 | 0.0 | 0.0 | 0.00 | 0.00 | 0.18 | 96 | 1003.0 |
| 20260507032621 | 13 | 135 | 0.0 | 1.6 | 0.00 | 0.00 | 0.18 | 96 | 1002.0 |
| 20260507032122 | 13 | 225 | 0.0 | 0.0 | 0.00 | 0.00 | 0.18 | 96 | 1002.0 |
| 20260507031621 | 13 | 68 | 0.0 | 0.0 | 0.00 | 0.00 | 0.18 | 96 | 1002.0 |
| 20260507031120 | 13 | 113 | 0.0 | 0.0 | 0.00 | 0.00 | 0.18 | 96 | 1002.0 |
| 20260507030622 | 13 | 248 | 0.0 | 1.6 | 0.00 | 0.00 | 0.18 | 96 | 1002.0 |
| 20260507030120 | 13 | 158 | 0.0 | 0.0 | 0.00 | 0.00 | 0.18 | 96 | 1002.0 |
| 20260507025621 | 13 | 293 | 0.0 | 1.6 | 0.00 | 0.00 | 0.18 | 96 | 1002.0 |
| 20260507025121 | 13 | 270 | 1.6 | 3.2 | 0.00 | 0.00 | 0.18 | 96 | 1002.0 |
| 20260507024620 | 13 | 90 | 0.0 | 0.0 | 0.00 | 0.00 | 0.18 | 96 | 1002.0 |
| 20260507024120 | 13 | 338 | 0.0 | 0.0 | 0.00 | 0.00 | 0.18 | 96 | 1002.0 |
| 20260507023621 | 13 | 270 | 3.2 | 6.4 | 0.00 | 0.00 | 0.18 | 96 | 1002.0 |
| 20260507023120 | 13 | 23 | 0.0 | 0.0 | 0.00 | 0.00 | 0.18 | 96 | 1002.0 |
| 20260507022620 | 13 | 113 | 3.2 | 4.8 | 0.00 | 0.00 | 0.18 | 96 | 1002.0 |
| 20260507022120 | 13 | 68 | 0.0 | 1.6 | 0.00 | 0.00 | 0.18 | 96 | 1002.0 |
| 20260507021620 | 13 | 90 | 0.0 | 1.6 | 0.00 | 0.00 | 0.18 | 96 | 1002.0 |
| 20260507021120 | 13 | 68 | 0.0 | 0.0 | 0.00 | 0.00 | 0.18 | 96 | 1002.0 |
| 20260507020621 | 13 | 135 | 1.6 | 3.2 | 0.00 | 0.00 | 0.18 | 96 | 1002.0 |
| 20260507020120 | 13 | 293 | 1.6 | 3.2 | 0.00 | 0.00 | 0.18 | 96 | 1002.0 |
| 20260507015621 | 13 | 68 | 0.0 | 0.0 | 0.00 | 0.00 | 0.18 | 96 | 1002.0 |
| 20260507015120 | 13 | 248 | 0.0 | 0.0 | 0.00 | 0.00 | 0.18 | 96 | 1002.0 |
| 20260507014621 | 13 | 248 | 4.8 | 8.0 | 0.00 | 0.00 | 0.18 | 96 | 1002.0 |
| 20260507014121 | 13 | 135 | 0.0 | 1.6 | 0.00 | 0.00 | 0.18 | 96 | 1002.0 |
| 20260507013620 | 13 | 338 | 0.0 | 0.0 | 0.00 | 0.00 | 0.18 | 96 | 1002.0 |
| 20260507013120 | 13 | 315 | 4.8 | 6.4 | 0.00 | 0.00 | 0.18 | 96 | 1002.0 |
| 20260507012620 | 13 | 68 | 0.0 | 1.6 | 0.00 | 0.00 | 0.18 | 96 | 1003.0 |
| 20260507012120 | 13 | 203 | 1.6 | 1.6 | 0.00 | 0.00 | 0.18 | 96 | 1003.0 |
| 20260507011620 | 13 | 248 | 0.0 | 0.0 | 0.00 | 0.00 | 0.18 | 96 | 1002.0 |
| 20260507011120 | 13 | 90 | 3.2 | 4.8 | 0.00 | 0.00 | 0.18 | 95 | 1002.0 |
| 20260507010621 | 13 | 338 | 0.0 | 1.6 | 0.00 | 0.00 | 0.18 | 95 | 1003.0 |
| 20260507010120 | 13 | 180 | 4.8 | 9.7 | 0.00 | 0.00 | 0.18 | 95 | 1003.0 |
| 20260507005620 | 13 | 180 | 8.0 | 11.3 | 0.00 | 0.00 | 0.18 | 95 | 1003.0 |
| 20260507005120 | 13 | 68 | 1.6 | 4.8 | 0.00 | 0.00 | 0.18 | 95 | 1003.0 |
| 20260507004622 | 13 | 158 | 3.2 | 4.8 | 0.00 | 0.00 | 0.18 | 95 | 1002.0 |
| 20260507004121 | 12 | 23 | 3.2 | 4.8 | 0.00 | 0.00 | 0.18 | 95 | 1002.0 |
| 20260507003620 | 12 | 270 | 1.6 | 3.2 | 0.00 | 0.00 | 0.18 | 95 | 1003.0 |
| 20260507003120 | 12 | 338 | 0.0 | 3.2 | 0.00 | 0.00 | 0.18 | 95 | 1002.0 |
| 20260507002620 | 12 | 248 | 0.0 | 0.0 | 0.00 | 0.00 | 0.18 | 95 | 1002.0 |
| 20260507002120 | 12 | 293 | 0.0 | 1.6 | 0.00 | 0.00 | 0.18 | 95 | 1002.0 |
| 20260507001620 | 12 | 270 | 4.8 | 4.8 | 0.00 | 0.00 | 0.18 | 95 | 1003.0 |
| 20260507001121 | 12 | 248 | 6.4 | 11.3 | 0.00 | 0.00 | 0.18 | 95 | 1002.0 |
| 20260507000620 | 12 | 248 | 0.0 | 0.0 | 0.00 | 0.00 | 0.18 | 95 | 1002.0 |
| 20260507000120 | 12 | 270 | 4.8 | 8.0 | 0.00 | 0.00 | 0.18 | 95 | 1002.0 |
| 20260506235620 | 12 | 248 | 0.0 | 1.6 | 0.03 | 0.00 | 0.18 | 95 | 1002.0 |
| 20260506235120 | 12 | 23 | 0.0 | 0.0 | 0.03 | 0.00 | 0.18 | 95 | 1002.0 |
| 20260506234620 | 12 | 45 | 1.6 | 3.2 | 0.03 | 0.00 | 0.18 | 95 | 1002.0 |
| 20260506234120 | 12 | 135 | 4.8 | 4.8 | 0.03 | 0.00 | 0.18 | 95 | 1002.0 |
| 20260506233620 | 12 | 23 | 4.8 | 6.4 | 0.03 | 0.00 | 0.18 | 95 | 1002.0 |
| 20260506233121 | 12 | 45 | 1.6 | 3.2 | 0.03 | 0.00 | 0.18 | 95 | 1002.0 |
| 20260506232620 | 12 | 68 | 0.0 | 0.0 | 0.00 | 0.00 | 0.15 | 94 | 1002.0 |
| 20260506232121 | 12 | 45 | 1.6 | 3.2 | 0.00 | 0.00 | 0.15 | 94 | 1002.0 |
| 20260506231621 | 13 | 248 | 1.6 | 3.2 | 0.00 | 0.00 | 0.15 | 94 | 1002.0 |
| 20260506231120 | 13 | 248 | 3.2 | 3.2 | 0.00 | 0.00 | 0.15 | 94 | 1003.0 |
| 20260506230620 | 13 | 0 | 3.2 | 4.8 | 0.00 | 0.00 | 0.15 | 94 | 1003.0 |
| 20260506230120 | 13 | 293 | 1.6 | 3.2 | 0.00 | 0.00 | 0.15 | 94 | 1003.0 |
| 20260506225620 | 13 | 315 | 0.0 | 0.0 | 0.05 | 0.00 | 0.15 | 94 | 1003.0 |
| 20260506225120 | 13 | 225 | 3.2 | 4.8 | 0.03 | 0.00 | 0.13 | 94 | 1002.0 |
| 20260506224620 | 13 | 90 | 3.2 | 4.8 | 0.03 | 0.00 | 0.13 | 94 | 1002.0 |
| 20260506224120 | 13 | 338 | 1.6 | 3.2 | 0.03 | 0.00 | 0.13 | 94 | 1002.0 |
| 20260506223620 | 13 | 338 | 3.2 | 4.8 | 0.03 | 0.00 | 0.13 | 94 | 1003.0 |
| 20260506223120 | 13 | 113 | 1.6 | 4.8 | 0.03 | 0.00 | 0.13 | 94 | 1002.0 |
| 20260506222620 | 13 | 68 | 1.6 | 4.8 | 0.03 | 0.00 | 0.13 | 94 | 1003.0 |
| 20260506222120 | 13 | 338 | 3.2 | 4.8 | 0.03 | 0.00 | 0.13 | 94 | 1002.0 |
| 20260506221620 | 13 | 90 | 1.6 | 3.2 | 0.03 | 0.00 | 0.13 | 94 | 1003.0 |
| 20260506221120 | 13 | 315 | 6.4 | 9.7 | 0.03 | 0.00 | 0.13 | 93 | 1003.0 |
| 20260506220620 | 13 | 315 | 1.6 | 3.2 | 0.00 | 0.00 | 0.10 | 93 | 1003.0 |
| 20260506220122 | 13 | 90 | 4.8 | 9.7 | 0.00 | 0.00 | 0.10 | 93 | 1003.0 |
| 20260506215621 | 13 | 293 | 4.8 | 4.8 | 0.03 | 0.00 | 0.05 | 92 | 1003.0 |
| 20260506215119 | 13 | 248 | 3.2 | 4.8 | 0.03 | 0.00 | 0.05 | 92 | 1003.0 |
| 20260506214620 | 14 | 248 | 0.0 | 1.6 | 0.03 | 0.00 | 0.05 | 91 | 1003.0 |
| 20260506214120 | 14 | 270 | 4.8 | 6.4 | 0.00 | 0.00 | 0.03 | 91 | 1003.0 |
| 20260506213620 | 14 | 0 | 0.0 | 1.6 | 0.00 | 0.00 | 0.03 | 90 | 1003.0 |
| 20260506213120 | 14 | 113 | 0.0 | 3.2 | 0.00 | 0.00 | 0.03 | 91 | 1003.0 |
| 20260506212620 | 14 | 315 | 1.6 | 4.8 | 0.00 | 0.00 | 0.03 | 91 | 1003.0 |
| 20260506212120 | 14 | 338 | 0.0 | 0.0 | 0.00 | 0.00 | 0.03 | 91 | 1003.0 |
| 20260506211620 | 14 | 315 | 1.6 | 3.2 | 0.00 | 0.00 | 0.03 | 91 | 1003.0 |
| 20260506211120 | 14 | 180 | 4.8 | 6.4 | 0.00 | 0.00 | 0.03 | 91 | 1003.0 |
| 20260506210621 | 14 | 270 | 4.8 | 4.8 | 0.00 | 0.00 | 0.03 | 91 | 1003.0 |
| 20260506210122 | 14 | 270 | 1.6 | 3.2 | 0.00 | 0.00 | 0.03 | 91 | 1003.0 |
| 20260506205620 | 14 | 90 | 6.4 | 9.7 | 0.00 | 0.00 | 0.03 | 90 | 1003.0 |
| 20260506205120 | 15 | 0 | 1.6 | 3.2 | 0.00 | 0.00 | 0.03 | 90 | 1003.0 |
| 20260506204621 | 15 | 68 | 6.4 | 11.3 | 0.00 | 0.00 | 0.03 | 89 | 1003.0 |
| 20260506204121 | 15 | 338 | 3.2 | 4.8 | 0.00 | 0.00 | 0.03 | 89 | 1003.0 |
| 20260506203622 | 15 | 203 | 4.8 | 9.7 | 0.00 | 0.00 | 0.03 | 89 | 1003.0 |
| 20260506203120 | 15 | 270 | 4.8 | 6.4 | 0.00 | 0.00 | 0.03 | 89 | 1003.0 |
| 20260506202621 | 15 | 293 | 1.6 | 4.8 | 0.00 | 0.00 | 0.03 | 89 | 1003.0 |
| 20260506202121 | 15 | 338 | 3.2 | 4.8 | 0.00 | 0.00 | 0.03 | 88 | 1003.0 |
| 20260506201621 | 15 | 293 | 4.8 | 8.0 | 0.00 | 0.00 | 0.03 | 87 | 1003.0 |
| 20260506201122 | 16 | 0 | 4.8 | 6.4 | 0.00 | 0.00 | 0.03 | 87 | 1003.0 |
| 20260506200620 | 16 | 315 | 1.6 | 3.2 | 0.00 | 0.00 | 0.03 | 87 | 1003.0 |
| 20260506200121 | 16 | 225 | 6.4 | 11.3 | 0.00 | 0.00 | 0.03 | 87 | 1003.0 |
| 20260506195621 | 16 | 225 | 4.8 | 6.4 | 0.00 | 0.00 | 0.00 | 87 | 1003.0 |
| 20260506195120 | 16 | 23 | 0.0 | 1.6 | 0.00 | 0.00 | 0.00 | 84 | 1003.0 |
| 20260506194619 | 16 | 338 | 3.2 | 4.8 | 0.00 | 0.00 | 0.00 | 84 | 1003.0 |
| 20260506194121 | 16 | 270 | 0.0 | 0.0 | 0.00 | 0.00 | 0.00 | 83 | 1003.0 |
| 20260506193621 | 16 | 0 | 4.8 | 4.8 | 0.00 | 0.00 | 0.00 | 82 | 1004.0 |
| 20260506193120 | 16 | 248 | 3.2 | 4.8 | 0.00 | 0.00 | 0.00 | 79 | 1004.0 |
| 20260506192621 | 17 | 68 | 0.0 | 3.2 | 0.00 | 0.00 | 0.00 | 79 | 1004.0 |
| 20260506192120 | 17 | 158 | 0.0 | 0.0 | 0.00 | 0.00 | 0.00 | 78 | 1003.0 |
| 20260506191620 | 17 | 293 | 11.3 | 20.9 | 0.00 | 0.00 | 0.00 | 74 | 1004.0 |
| 20260506191120 | 17 | 113 | 1.6 | 3.2 | 0.00 | 0.00 | 0.00 | 72 | 1004.0 |
| 20260506190620 | 17 | 248 | 9.7 | 16.1 | 0.00 | 0.00 | 0.00 | 71 | 1004.0 |
| 20260506190124 | 17 | 270 | 1.6 | 3.2 | 0.00 | 0.00 | 0.00 | 71 | 1004.0 |
| 20260506185620 | 18 | 315 | 3.2 | 4.8 | 0.00 | 0.00 | 0.00 | 71 | 1004.0 |
| 20260506185120 | 18 | 293 | 3.2 | 8.0 | 0.00 | 0.00 | 0.00 | 71 | 1004.0 |
| 20260506184621 | 18 | 338 | 1.6 | 3.2 | 0.00 | 0.00 | 0.00 | 70 | 1004.0 |
| 20260506184120 | 18 | 203 | 3.2 | 4.8 | 0.00 | 0.00 | 0.00 | 69 | 1003.0 |
| 20260506183621 | 18 | 315 | 6.4 | 8.0 | 0.00 | 0.00 | 0.00 | 69 | 1004.0 |
| 20260506183121 | 18 | 338 | 6.4 | 11.3 | 0.00 | 0.00 | 0.00 | 68 | 1004.0 |
| 20260506182621 | 18 | 158 | 6.4 | 9.7 | 0.00 | 0.00 | 0.00 | 69 | 1004.0 |
| 20260506182121 | 18 | 270 | 3.2 | 4.8 | 0.00 | 0.00 | 0.00 | 68 | 1004.0 |
| 20260506181620 | 18 | 315 | 3.2 | 4.8 | 0.00 | 0.00 | 0.00 | 67 | 1004.0 |
| 20260506181120 | 18 | 158 | 4.8 | 6.4 | 0.00 | 0.00 | 0.00 | 67 | 1004.0 |
| 20260506180620 | 19 | 338 | 3.2 | 4.8 | 0.00 | 0.00 | 0.00 | 68 | 1004.0 |
| 20260506180120 | 19 | 23 | 3.2 | 4.8 | 0.00 | 0.00 | 0.00 | 67 | 1004.0 |
| 20260506175620 | 19 | 315 | 0.0 | 1.6 | 0.00 | 0.00 | 0.00 | 66 | 1004.0 |
| 20260506175121 | 19 | 68 | 1.6 | 3.2 | 0.00 | 0.00 | 0.00 | 66 | 1004.0 |
| 20260506174621 | 20 | 338 | 3.2 | 4.8 | 0.00 | 0.00 | 0.00 | 65 | 1004.0 |
| 20260506174121 | 20 | 338 | 0.0 | 1.6 | 0.00 | 0.00 | 0.00 | 63 | 1004.0 |
| 20260506173621 | 20 | 23 | 1.6 | 4.8 | 0.00 | 0.00 | 0.00 | 64 | 1005.0 |
| 20260506173122 | 20 | 225 | 3.2 | 4.8 | 0.00 | 0.00 | 0.00 | 63 | 1005.0 |
| 20260506172621 | 21 | 203 | 4.8 | 8.0 | 0.00 | 0.00 | 0.00 | 61 | 1005.0 |
| 20260506172120 | 21 | 293 | 3.2 | 4.8 | 0.00 | 0.00 | 0.00 | 62 | 1004.0 |